STARLINK-5192, 54074

Orbit data source: Space-Track

STARLINK-5192, 54074 is a payload satellite owned by SpaceX/Seattle (US) in LEO that was launched on Thu, 20 Oct 2022 UTC via an FALCON 9 launch vehicle from the Air Force Eastern Test Range (AFETR). Payload-class satellites include a variety of spacecraft equipped with specific instruments for various scientific and technological missions. These include communications satellites like Starlink; space stations such as the ISS; scientific satellites like the Hubble; Earth observation satellites from companies like Planet Labs, Umbra, and HawkEye 360; GPS; miniature CubeSats for education and research; and military/defense satellites.

Loading next visibility...
Identifier
54074, 2022-136Z
Orbit
LEO
Country
Flag of USUS
Related business
Manufacturer
SpaceX/Seattle
Mission
Operational Commercial Communications
Bus & Motor
STARLINK, Unknown motor
Mass
305 kg wet, ~290 kg dry
Launch date (UTC)
2022-10-20 (3 years ago)
Launch vehicle
FALCON 9
Launch site
Air Force Eastern Test Range (AFETR)
Object type
Payload
Rocket body
Debris
Shape & HBR
Box + 1 Pan, 4.4 m
Radar Cross Section
13.562 m², Large (>1 m²)

Expand to show TLE details & history
Last TLE update: 17 hours ago

TLE from 17 hours ago
0 STARLINK-5192
1 54074U 22136Z   25260.69879468 -.00000005  00000-0  17758-4 0  9994
2 54074  53.2189  40.3238 0001454  97.4781 262.6377 15.08838870160738
Epoch: 2025-09-17T16:46Z
TLE epoch observation values (Epoch: 2025-09-17T16:46:15.86Z)
Latitude
0.00003°
Longitude
151.88674°
Altitude
540.773 km
Speed
7.593 km/s
True Right ascension
02h 41m 17s
True Declination
0° 00' 00"
Sunlit
Object was in full shadow at epoch
Visualization orbit readout
Latitude
Unknown
Longitude
Unknown
Altitude
Unknown
Speed
Unknown
Apparent Right ascension
Unknown
Apparent Declination
Unknown
Sunlit
N/A
Visualization observer readout
Local Sidereal Time
02:58:35
Azimuth
Unknown
Elevation
Unknown
Doppler factor
Unknown
Orbital elements
Apogee altitude
540.997 km
Perigee altitude
538.986 km
Semi-major axis
6,918.129 km
Eccentricity
0.00015
Inclination
53.2189°
RAAN
40.3238°
Arg. of periapsis
97.4781°
True anomaly
262.62118°
Mean anomaly
262.6377°
Eccentric anomaly
262.62944°
Mean motion
3.7719 °/min
Orbital period
95.44 mins
BSTAR
0.000017758
Loading maneuver chart data...
Computing Atmospheric mass density...
Loading historical data...
Loading historical data...
Loading historical data...
Loading historical data...
Loading historical data...
Loading historical data...
Loading historical data...

Documentation

Showing up to 5 results
|